Photometre #253[Standard_N] Modena AOT

File : 20220922_253.hum

22/09/2022,05:53:17,TEMP=9.8,BA=5.28,STAT.A
22/09/2022,05:56:53,TEMP=9.9,BA=5.28,STAT.A
22/09/2022,06:01:06,TEMP=9.8,BA=5.32,STAT.A
22/09/2022,06:06:08,TEMP=9.9,BA=5.32,STAT.A
22/09/2022,06:12:12,TEMP=10.3,BA=5.36,STAT.A
22/09/2022,06:19:40,TEMP=11.2,BA=5.36,STAT.A
22/09/2022,06:29:05,TEMP=12.1,BA=5.40,STAT.B
22/09/2022,06:36:24,TEMP=12.7,BA=5.40,STAT.A
22/09/2022,06:38:42,TEMP=12.8,BA=5.40,STAT.A
22/09/2022,06:44:24,TEMP=13.1,BA=5.28,STAT.A
22/09/2022,06:50:55,TEMP=13.4,BA=5.44,STAT.A
22/09/2022,06:58:22,TEMP=14.1,BA=5.44,STAT.C
22/09/2022,07:09:35,TEMP=15.1,BA=5.44,STAT.A
22/09/2022,07:17:22,TEMP=15.8,BA=5.28,STAT.A
22/09/2022,07:29:45,TEMP=16.7,BA=5.44,STAT.A
22/09/2022,07:45:00,TEMP=17.7,BA=5.48,STAT.A
22/09/2022,08:04:27,TEMP=19.0,BA=5.48,STAT.B
22/09/2022,08:11:49,TEMP=19.5,BA=5.52,STAT.F
22/09/2022,08:24:38,TEMP=20.2,BA=5.52,STAT.D
22/09/2022,08:39:39,TEMP=20.5,BA=5.48,STAT.D
22/09/2022,08:54:39,TEMP=21.0,BA=5.52,STAT.D
22/09/2022,09:09:39,TEMP=21.6,BA=5.52,STAT.F
22/09/2022,09:24:39,TEMP=22.3,BA=5.52,STAT.D
22/09/2022,09:39:39,TEMP=22.2,BA=5.52,STAT.D
22/09/2022,09:54:39,TEMP=22.4,BA=5.52,STAT.D
22/09/2022,10:09:39,TEMP=22.7,BA=5.52,STAT.F
22/09/2022,10:24:39,TEMP=23.1,BA=5.52,STAT.D
22/09/2022,10:39:39,TEMP=23.3,BA=5.52,STAT.D
22/09/2022,10:54:39,TEMP=23.4,BA=5.52,STAT.D
22/09/2022,11:09:39,TEMP=24.1,BA=5.52,STAT.E
22/09/2022,11:24:39,TEMP=24.6,BA=5.52,STAT.D
22/09/2022,11:39:39,TEMP=24.5,BA=5.52,STAT.D
22/09/2022,11:54:39,TEMP=25.3,BA=5.48,STAT.D
22/09/2022,12:09:39,TEMP=24.5,BA=5.48,STAT.F
22/09/2022,12:24:39,TEMP=24.8,BA=5.48,STAT.D
22/09/2022,12:39:39,TEMP=24.7,BA=5.48,STAT.D
22/09/2022,12:54:39,TEMP=24.8,BA=5.52,STAT.D
22/09/2022,13:09:39,TEMP=24.8,BA=5.48,STAT.F
22/09/2022,13:24:39,TEMP=24.5,BA=5.48,STAT.D
22/09/2022,13:39:37,TEMP=24.8,BA=5.48,STAT.D
22/09/2022,13:54:38,TEMP=25.0,BA=5.48,STAT.D
22/09/2022,14:09:38,TEMP=25.3,BA=5.48,STAT.F
22/09/2022,14:21:01,TEMP=25.2,BA=5.48,STAT.B
22/09/2022,14:34:17,TEMP=24.8,BA=5.48,STAT.A
22/09/2022,14:49:33,TEMP=24.9,BA=5.48,STAT.A
22/09/2022,15:01:55,TEMP=24.8,BA=5.48,STAT.A
22/09/2022,15:12:12,TEMP=24.6,BA=5.48,STAT.A
22/09/2022,15:20:55,TEMP=24.4,BA=5.48,STAT.C
22/09/2022,15:31:56,TEMP=23.8,BA=5.48,STAT.A
22/09/2022,15:34:53,TEMP=23.6,BA=5.48,STAT.A
22/09/2022,15:40:36,TEMP=23.3,BA=5.44,STAT.A
22/09/2022,15:45:39,TEMP=23.1,BA=5.44,STAT.A
22/09/2022,15:50:11,TEMP=22.9,BA=5.44,STAT.B
22/09/2022,15:59:38,TEMP=22.5,BA=5.44,STAT.A
22/09/2022,16:07:06,TEMP=22.2,BA=5.44,STAT.A
22/09/2022,16:13:09,TEMP=22.1,BA=5.44,STAT.A
22/09/2022,16:18:10,TEMP=22.1,BA=5.44,STAT.A
22/09/2022,16:22:23,TEMP=22.1,BA=5.44,STAT.A
22/09/2022,16:26:01,TEMP=22.0,BA=5.44,STAT.A